EW7535 Weather Reports


Display with metric or nautical units.
time (UTC)temp
F
wind
direction
speed
MPH
gust
MPH
rain 1hr
in
rain 24hr
in
rain mn
in
humidity
%
barometer
mb
20190418141534 59 195 0.0 2.0 0.00 0.00 0.00 60 1018.8
20190418140022 57 135 0.0 3.0 0.00 0.00 0.00 63 1018.4
20190418134508 54 96 1.0 4.0 0.00 0.00 0.00 69 1018.1
20190418131654 51 90 0.0 4.0 0.00 0.00 0.00 73 1017.9
20190418130350 51 96 0.0 2.0 0.00 0.00 0.00 74 1017.8
20190418124645 50 117 0.0 3.0 0.00 0.00 0.00 73 1017.6
20190418123118 50 111 0.0 1.0 0.00 0.00 0.00 73 1017.3
20190418121706 49 102 0.0 0.0 0.00 0.00 0.00 73 1017.0
20190418120144 50 102 0.0 0.0 0.00 0.00 0.00 69 1016.9
20190418114612 50 102 0.0 0.0 0.00 0.00 0.00 70 1016.6
20190418113134 52 101 0.0 0.0 0.00 0.00 0.00 68 1016.5
20190418111608 52 97 0.0 1.0 0.00 0.00 0.00 68 1016.6
20190418110052 53 97 0.0 0.0 0.00 0.00 0.00 66 1016.8
20190418104712 55 97 0.0 0.0 0.00 0.00 0.00 62 1016.8
20190418103127 55 95 0.0 3.0 0.00 0.00 0.00 61 1016.6
20190418101605 55 102 0.0 2.0 0.00 0.00 0.00 61 1016.7
20190418100123 55 100 0.0 3.0 0.00 0.00 0.00 61 1016.6
20190418094617 56 86 0.0 4.0 0.00 0.00 0.00 62 1016.8
20190418093131 56 85 0.0 2.0 0.00 0.00 0.00 61 1016.8
20190418091604 56 131 0.0 3.0 0.00 0.00 0.00 59 1017.0
20190418090121 57 100 0.0 5.0 0.00 0.00 0.00 59 1017.0
20190418084548 56 108 0.0 1.0 0.00 0.00 0.00 60 1017.1
20190418083056 56 103 0.0 1.0 0.00 0.00 0.00 60 1017.3
20190418081533 56 103 0.0 1.0 0.00 0.00 0.00 60 1017.5
20190418080040 57 127 0.0 2.0 0.00 0.00 0.00 58 1017.5
20190418074526 61 307 0.0 3.0 0.00 0.00 0.00 49 1017.5
20190418073039 61 300 0.0 3.0 0.00 0.00 0.00 50 1017.5
20190418071519 60 13 0.0 2.0 0.00 0.00 0.00 50 1017.4
20190418070008 60 304 0.0 2.0 0.00 0.00 0.00 51 1017.5
20190418064511 62 301 0.0 1.0 0.00 0.00 0.00 48 1017.3
20190418063006 62 265 0.0 1.0 0.00 0.00 0.00 47 1017.2
20190418061511 62 306 0.0 2.0 0.00 0.00 0.00 47 1017.0
20190418060146 62 308 0.0 2.0 0.00 0.00 0.00 47 1016.7
20190418054650 62 297 0.0 3.0 0.00 0.00 0.00 47 1016.6
20190418053245 63 303 1.0 4.0 0.00 0.00 0.00 46 1016.3
20190418051704 62 308 1.0 3.0 0.00 0.00 0.00 47 1016.3
20190418050203 62 309 1.0 3.0 0.00 0.00 0.00 47 1016.3
20190418044638 63 293 1.0 4.0 0.00 0.01 0.00 46 1016.3
20190418043425 63 308 0.0 2.0 0.00 0.01 0.00 46 1016.1
20190418041736 63 316 0.0 4.0 0.00 0.01 0.00 46 1016.0
20190418040110 63 307 0.0 3.0 0.00 0.01 0.00 46 1015.8
20190418034718 63 340 0.0 2.0 0.00 0.01 0.00 45 1015.8
20190418033314 64 293 1.0 4.0 0.00 0.01 0.00 44 1015.8
20190418031709 64 302 0.0 2.0 0.00 0.01 0.00 44 1015.6
20190418030154 65 307 1.0 3.0 0.00 0.01 0.00 43 1015.4
20190418024605 66 295 1.0 5.0 0.00 0.01 0.00 41 1015.1
20190418023205 66 293 3.0 9.0 0.00 0.01 0.00 40 1015.0
20190418021700 67 293 4.0 8.0 0.00 0.01 0.00 39 1014.8
20190418020106 68 291 4.0 8.0 0.00 0.01 0.00 38 1014.6
20190418014607 69 271 5.0 9.0 0.00 0.01 0.00 37 1014.5
20190418013124 70 277 8.0 11.0 0.00 0.01 0.00 36 1014.4
20190418011610 71 288 5.0 12.0 0.00 0.01 0.00 36 1014.2
20190418010118 71 294 6.0 12.0 0.00 0.01 0.00 35 1014.3
20190418004601 71 302 7.0 14.0 0.00 0.01 0.00 35 1014.1
20190418003124 71 294 10.0 19.0 0.00 0.01 0.00 35 1013.9
20190418001551 72 269 9.0 19.0 0.00 0.01 0.00 35 1014.0
20190418000101 73 309 10.0 15.0 0.00 0.01 0.00 33 1013.9
20190417234606 72 289 8.0 20.0 0.00 0.01 0.00 34 1013.8
20190417233054 72 272 13.0 21.0 0.00 0.01 0.00 35 1013.7
20190417231610 73 302 10.0 19.0 0.00 0.01 0.00 33 1013.8
20190417230137 72 291 9.0 18.0 0.00 0.01 0.00 34 1013.9
20190417224540 71 274 8.0 21.0 0.00 0.01 0.00 36 1013.9
20190417223125 70 265 6.0 18.0 0.00 0.01 0.00 36 1014.0
20190417221607 71 305 10.0 16.0 0.00 0.01 0.00 36 1014.0
20190417220113 71 312 9.0 16.0 0.00 0.01 0.00 36 1014.1
20190417214556 71 289 8.0 14.0 0.00 0.01 0.00 36 1014.2
20190417213134 71 302 7.0 16.0 0.00 0.01 0.00 38 1014.6
20190417211602 71 277 7.0 16.0 0.00 0.01 0.00 36 1014.7
20190417210030 70 264 7.0 18.0 0.00 0.01 0.00 37 1014.6
20190417204545 70 203 6.0 15.0 0.00 0.01 0.00 36 1014.5
20190417203106 70 274 6.0 13.0 0.00 0.01 0.00 38 1014.7
20190417201526 69 278 5.0 13.0 0.00 0.01 0.00 40 1014.6
20190417200024 67 293 6.0 20.0 0.00 0.01 0.00 42 1014.6
20190417194538 67 285 7.0 19.0 0.00 0.01 0.00 43 1014.7
20190417193055 66 290 5.0 10.0 0.00 0.01 0.00 44 1014.8
20190417191530 66 269 2.0 16.0 0.00 0.01 0.00 43 1014.7
20190417190024 65 314 6.0 13.0 0.00 0.01 0.00 45 1014.6
20190417184538 64 342 6.0 12.0 0.00 0.01 0.00 47 1014.7
20190417183125 65 330 1.0 11.0 0.00 0.01 0.00 46 1014.7
20190417181542 64 307 5.0 10.0 0.00 0.01 0.00 48 1014.8
20190417180022 64 287 1.0 15.0 0.00 0.01 0.00 51 1014.8
20190417174513 63 295 7.0 14.0 0.00 0.01 0.00 50 1015.1
20190417173007 62 309 4.0 11.0 0.00 0.01 0.00 50 1014.9
20190417171519 62 304 6.0 13.0 0.00 0.01 0.00 50 1015.0
20190417164700 61 292 4.0 10.0 0.00 0.01 0.00 55 1014.9
20190417163124 60 285 6.0 13.0 0.00 0.01 0.00 59 1015.0
20190417161749 59 282 2.0 9.0 0.00 0.01 0.00 61 1014.8
20190417160209 59 256 3.0 6.0 0.00 0.01 0.00 63 1014.7
20190417154607 59 260 2.0 7.0 0.00 0.01 0.00 65 1014.7
20190417153134 57 276 1.0 6.0 0.00 0.01 0.00 68 1014.5
20190417151650 57 276 1.0 3.0 0.00 0.01 0.00 71 1014.5
20190417150103 55 311 1.0 4.0 0.00 0.01 0.00 73 1014.3
20190417144614 54 264 0.0 4.0 0.00 0.01 0.00 77 1014.1
20190417143109 53 262 0.0 1.0 0.00 0.01 0.00 81 1013.9